Location: Clanezzo
(45.7500°N, 9.6000°E)
Time: 10:14:32
(UTC+00:00)

CAS-4A - Pass Details

Date: 05 July 2022
Orbit: 521 x 536 km, 43.0° (Epoch: 17 August)

Event Time Altitude Azimuth Distance (km) Brightness Sun altitude
Exits shadow 02:46:33 - 269° (W) 2,399 ? -7.8°
Reaches altitude 10° 02:48:11 10° 265° (W) 1,758 ? -7.6°
Maximum altitude 02:52:06 54° 189° (S) 640 ? -7.1°
Drops below altitude 10° 02:56:03 10° 111° (ESE) 1,764 ? -6.6°
Sets 02:58:19 0° 107° (ESE) 2,656 ? -6.3°
